Погода в Земетчине

Россия / Тамбовская область     52°54′16″N   41°50′50″E
темп.,
°C
ветер,
м/с
пор.,
м/с
влажн.,
%
обл.,
%
осадки,
мм/ч
давл.,
гПа
погр.,
м
15 июня, вт
вт1500:00+17всв119352 0.2 101411
03:00+16св22965 0.2 101420
06:00+17всв249449 0.0 1014143
09:00+22в337324 0.3 1014860
12:00+25в345830 0.1 10121429
15:00+25всв236127 1.8 10111305
18:00+21в2589100 3.9 1010163
21:00+17всв1192100 6.3 101011
16 июня, ср
ср1600:00+16ссв119396 0.0 101013
03:00+15с22965 0.0 100932
06:00+17ссз249323 0.0 1010127
09:00+23ссз24625 0.0 1010654
12:00+26сз33495 0.0 10101557
15:00+26зсз455955 0.6 10101655
18:00+23ссз47785 1.4 1011723
21:00+18ссз310950 1.4 1014332
17 июня, чт
чт1700:00+17с312920 0.0 1016413
03:00+15с310973 0.0 1017304
06:00+16с398413 0.0 1019312
09:00+20ссв47565 0.0 10201015
12:00+23ссв46365 0.0 10211677
15:00+23с67390 0.0 10211553
18:00+21с59510 0.0 10221205
21:00+14с27760 0.0 1024137
18 июня, пт
пт1800:00+12с24821 0.0 102575
03:00+11ссв27850 0.0 1026125
06:00+14ссв27750 0.0 1027186
09:00+20св365173 0.0 1027846
12:00+23всв464324 0.0 10271725
15:00+23всв45440 0.0 10271658
18:00+22в33584 0.0 1027815
21:00+16ююв22800 0.0 102821
19 июня, сб
сб1900:00+14ю12855 0.0 102912
03:00+13ююз11870 0.0 103010
06:00+16юз12760 0.0 103093
09:00+22зюз11550 0.0 1030680
12:00+25зюз21470 0.0 10291441
15:00+26зюз22460 0.0 10271646
18:00+24з22590 0.0 1027836
21:00+18зюз22850 0.0 102711